Regional Weather Roundup
Issued by NWS

Home | Current Version | Previous Version | Graphics & Text | Print | Product List | Glossary On
Versions: 1 2 3 4 5 6 7 8 9 10 11 12 13 14 15 16 17 18 19 20 21 22 23 24 25 26 27 28 29 30 31 32 33 34 35 36 37 38 39 40 41 42 43 44 45 46 47 48 49 50
000
ASUS45 KPSR 031210
RWRAZ

ARIZONA HOURLY REGIONAL WEATHER ROUNDUP
NATIONAL WEATHER SERVICE PHOENIX AZ
500 AM MST MON AUG 03 2015

NOTE: FAIR INDICATES FEW OR NO CLOUDS BELOW 12,000 FEET WITH NO
SIGNIFICANT WEATHER AND/OR OBSTRUCTIONS TO VISIBILITY.

AZZ001>003-036-031300-
NORTHWEST ARIZONA

CITY           SKY/WX    TMP DP  RH WIND       PRES   REMARKS
BULLHEAD CITY  CLEAR     86  46  25 CALM      29.75R
KINGMAN        CLEAR     71  43  36 SE6       29.96S
6HR MIN TEMP:  70; 6HR MAX TEMP:  82;

$$

AZZ004>008-015-016-018-031300-
NORTH CENTRAL ARIZONA

CITY           SKY/WX    TMP DP  RH WIND       PRES   REMARKS
GRAND CANYON   CLEAR     45  43  93 CALM      30.22S
6HR MIN TEMP:  45; 6HR MAX TEMP:  55;

WILLIAMS       CLEAR     54  48  82 S9        30.29S
PRESCOTT       CLEAR     65  49  56 S6        30.10S
6HR MIN TEMP:  63; 6HR MAX TEMP:  74;

FLAGSTAFF      CLEAR     48  46  93 CALM      30.26S
6HR MIN TEMP:  48; 6HR MAX TEMP:  54;

PAYSON         CLEAR     64  52  63 CALM      30.12S
PAGE           CLEAR     66  60  81 CALM      30.05S
6HR MIN TEMP:  66; 6HR MAX TEMP:  71;

$$

AZZ009>014-017-031300-
NORTHEAST ARIZONA

CITY           SKY/WX    TMP DP  RH WIND       PRES   REMARKS
WINSLOW        CLEAR     58  54  86 SE5       30.12S
6HR MIN TEMP:  56; 6HR MAX TEMP:  66;

SAINT JOHNS    CLEAR     58  52  80 S5        30.16S
6HR MIN TEMP:  56; 6HR MAX TEMP:  65;

SHOW LOW       CLEAR     55  50  82 S6        30.22S
$$

AZZ023-031300-
GREATER PHOENIX AREA

CITY           SKY/WX    TMP DP  RH WIND       PRES   REMARKS
PHOENIX        CLEAR     89  58  34 E8        29.78R
6HR MIN TEMP:  89; 6HR MAX TEMP:  99;

DEER VALLEY    CLEAR     83  51  33 N3        29.80R
6HR MIN TEMP:  83; 6HR MAX TEMP:  95;

SCOTTSDALE     CLEAR     88  53  30 CALM      29.82R
6HR MIN TEMP:  88; 6HR MAX TEMP:  96;

MESA-GATEWAY   CLEAR     82  54  36 E6        29.83R
$$

AZZ027-028-031300-
SOUTHWEST MARICOPA COUNTY AND PINAL COUNTY

CITY           SKY/WX    TMP DP  RH WIND       PRES   REMARKS
CASA GRANDE    CLEAR     81  61  50 CALM      29.82R
6HR MIN TEMP:  81; 6HR MAX TEMP:  90;

GILA BEND      FAIR      85  51  30 S6        29.76R
6HR MIN TEMP:  85; 6HR MAX TEMP:  96;

$$

AZZ503-504-507>509-031300-
SOUTHEAST ARIZONA

CITY           SKY/WX    TMP DP  RH WIND       PRES   REMARKS
TUCSON         MOCLDY    80  60  50 CALM      29.94R
6HR MIN TEMP:  80; 6HR MAX TEMP:  89;

DAVIS-MONTHAN  CLEAR     78  60  52 S3        29.93R
6HR MIN TEMP:  78; 6HR MAX TEMP:  86; 6HR PCP: TRACE;

NOGALES        CLEAR     68  60  75 N5        30.04R
6HR MIN TEMP:  68; 6HR MAX TEMP:  76;

SIERRA VISTA   CLEAR     70  57  63 N1        30.09R
6HR MIN TEMP:  69; 6HR MAX TEMP:  76;

DOUGLAS          N/A    N/A N/A N/A MISG      30.05R
SAFFORD        CLEAR     69  58  67 CALM      29.96R
6HR MIN TEMP:  69; 6HR MAX TEMP:  80;

$$

AZZ020-021-025-026-031-031300-
SOUTHWEST ARIZONA

CITY           SKY/WX    TMP DP  RH WIND       PRES   REMARKS
YUMA           CLEAR     85  55  35 W5        29.71S
6HR MIN TEMP:  84; 6HR MAX TEMP:  93;

$$

CAZ031-033-041-043-047-048-061-031300-
SOUTHERN CALIFORNIA

CITY           SKY/WX    TMP DP  RH WIND       PRES   REMARKS
DOWNTOWN L.A.  CLEAR     67  61  81 CALM      29.87R
6HR MIN TEMP:  67; 6HR MAX TEMP:  70;

L.A. AIRPORT   CLEAR     68  62  81 CALM      29.88R
6HR MIN TEMP:  67; 6HR MAX TEMP:  71;

SAN DIEGO      CLOUDY    69  62  78 W6        29.89R
6HR MIN TEMP:  69; 6HR MAX TEMP:  71;

BURBANK        CLEAR     68  61  78 CALM      29.88S
6HR MIN TEMP:  68; 6HR MAX TEMP:  72;

ONTARIO        PTCLDY    67  62  84 SW3       29.88S
6HR MIN TEMP:  67; 6HR MAX TEMP:  72;

RIVERSIDE      CLEAR     68  63  84 CALM      29.88F
6HR MIN TEMP:  67; 6HR MAX TEMP:  74;

PALM SPRINGS   CLEAR     81  60  48 SW3       29.74F
6HR MIN TEMP:  81; 6HR MAX TEMP:  94;

EL CENTRO NAS  CLEAR     81  42  25 S5        29.71R
6HR MIN TEMP:  81; 6HR MAX TEMP:  95;

IMPERIAL       CLEAR     82  43  25 S3        29.69R
6HR MIN TEMP:  81; 6HR MAX TEMP:  92;

BLYTHE         CLEAR     85  49  28 SE3       29.72R
6HR MIN TEMP:  85; 6HR MAX TEMP:  99;

NEEDLES        CLEAR     89  46  22 W6        29.75R
6HR MIN TEMP:  88; 6HR MAX TEMP: 100;

$$

NVZ020-UTZ003-031300-
SOUTHERN NEVADA-UTAH

CITY           SKY/WX    TMP DP  RH WIND       PRES   REMARKS
LAS VEGAS      CLEAR     86  40  19 S7        29.80R
6HR MIN TEMP:  86; 6HR MAX TEMP:  93;

SALT LAKE CITY LGT RAIN  65  61  87 SE7       30.05S
6HR MIN TEMP:  64; 6HR MAX TEMP:  76; 6HR PCP:  0.05;

$$

NMZ009-TXZ055-031300-
NEW MEXICO-WEST TEXAS

CITY           SKY/WX    TMP DP  RH WIND       PRES   REMARKS
ALBUQUERQUE    PTCLDY    65  59  81 CALM      30.16R
6HR MIN TEMP:  64; 6HR MAX TEMP:  72; 6HR PCP:  0.01;

EL PASO        MOCLDY    72  64  76 CALM      30.05R
6HR MIN TEMP:  72; 6HR MAX TEMP:  75;

$$


........................KEY........................
SKY/WX - SKY CONDITION/WEATHER
TMP    - TEMPERATURE IN FAHRENHEIT
DP     - DEW POINT IN FAHRENHEIT
RH     - RELATIVE HUMIDITY IN PERCENT
WIND   - DIRECTION AND SPEED IN MILES PER HOUR (MPH)
VRB    - VARIABLE WIND DIRECTION
PRES   - MEAN SEA LEVEL PRESSURE IN INCHES OF MERCURY
         F - FALLING PRESSURE   R - RISING PRESSURE
         S - STEADY PRESSURE
VSB    - VISIBILITY IN MILES
HX     - HEAT INDEX IN FAHRENHEIT
WCI    - WIND CHILL INDEX IN FAHRENHEIT
TC     - TEMPERATURE IN CELSIUS WHICH IS ALSO KNOWN AS
         TEMPERATURE IN CENTIGRADE
AFB    - AIR FORCE BASE
         LUKE AFB IS LUKE AIR FORCE BASE
         DAVIS-MONTHAN IS DAVIS-MONTHAN AIR FORCE BASE
NAS    - NAVAL AIR STATION
         EL CENTRO NAS IS EL CENTRO NAVAL AIR STATION
N/A    - NOT AVAILABLE



USA.gov is the U.S. government's official web portal to all federal, state and local government web resources and services.